Regional Weather Roundup
Issued by NWS

Home | Current Version | Previous Version | Text Only | Print | Product List | Glossary On
Versions: 1 2 3 4 5 6 7 8 9 10 11 12 13 14 15 16 17 18 19 20 21 22 23 24 25 26 27 28 29 30 31 32 33 34 35 36 37 38 39 40 41 42 43 44 45 46 47 48 49 50
295
ASUS43 KLSX 161357
RWRMO

WEATHER SUMMARY FOR MISSOURI
NATIONAL WEATHER SERVICE SPRINGFIELD MO
800 AM CST SAT DEC 16 2017

NOTE: "FAIR" INDICATES FEW OR NO CLOUDS BELOW 12,000 FEET WITH NO
       SIGNIFICANT WEATHER AND/OR OBSTRUCTIONS TO VISIBILITY.
       CURRENT SKY AND/OR WEATHER CONDITIONS ARE NOT AVAILABLE FOR
       CHILLICOTHE AND FARMINGTON.

MOZ001>031-035>038-043-044-053-054-161500-
...NORTHERN AND WESTERN MISSOURI...

CITY           SKY/WX    TMP DP  RH WIND       PRES   REMARKS
KANSAS CTY INT PTCLDY    36  24  62 SW13G21   29.86R WCI  27
LEE`S SUMMIT   CLEAR     38  25  59 SW13      29.89R WCI  30
ST JOSEPH      CLOUDY    35  26  69 S10       29.85R WCI  27
CHILLICOTHE      N/A     33  23  66 S6        29.87R WCI  28

$$
MOZ066>068-077>081-088>096-101>105-161500-
...SOUTHWEST MISSOURI...

CITY           SKY/WX    TMP DP  RH WIND       PRES   REMARKS
SPRINGFIELD    CLOUDY    35  25  66 S10       30.02R WCI  27
JOPLIN         CLEAR     41  25  53 S17       30.01R
BRANSON        PTCLDY    39  23  52 SW5       30.07R

$$
MOZ032>034-039>042-045>050-055>058-069>072-161500-
...CENTRAL MISSOURI...

CITY           SKY/WX    TMP DP  RH WIND       PRES   REMARKS
COLUMBIA       NOT AVBL
JEFFERSON CITY CLEAR     36  24  62 SE6       29.98R
ROLLA          CLEAR     35  25  66 S17       29.99R WCI  25
SEDALIA        CLEAR     41  25  53 SW21      29.94R
WARRENSBURG    CLEAR     34  25  69 S9        29.92S WCI  26

$$
MOZ051-052-059>065-161500-
...EAST CENTRAL MISSOURI...

CITY           SKY/WX    TMP DP  RH WIND       PRES   REMARKS
ST LOUIS INTL  PTCLDY    39  26  59 SW16      29.98S

$$
MOZ072>076-082>087-097>100-106>115-161500-
...SOUTH CENTRAL AND SOUTHEAST MISSOURI...

CITY           SKY/WX    TMP DP  RH WIND       PRES   REMARKS
CAPE GIRARDEAU CLOUDY    31  27  85 S9        30.14S WCI  23
POPLAR BLUFF   CLOUDY    31  29  92 S5        30.16R WCI  26
WEST PLAINS    CLOUDY    33  26  75 SW6       30.09S WCI  28

$$



USA.gov is the U.S. government's official web portal to all federal, state and local government web resources and services.